WSSS Airport Information

Runway Information
Runway 02C Length 13123 ft width 197 ft
Elevation 15 ft Threshold 0 ft Heading 23
Runway 20C Length 13123 ft Width 197 ft
Elevation 15 ft Threshold 0 ft Heading 203
Runway 02L Length 13123 ft width 197 ft
Elevation 22 ft Threshold 0 ft Heading 23
Runway 20R Length 13123 ft Width 197 ft
Elevation 14 ft Threshold 2429 ft Heading 203
Runway 02R Length 9015 ft width 195 ft
Elevation 0 ft Threshold 0 ft Heading 23
Runway 20L Length 9015 ft Width 195 ft
Elevation 0 ft Threshold 0 ft Heading 203
Airport Frequencies
Type A/D Name APP/DEP Frequency 120.3 MHZ
Type ARR Name ARR Frequency 119.3 MHZ
Type ATIS Name ATIS Frequency 128.6 MHZ
Type CLD Name CLNC DEL Frequency 121.65 MHZ
Type GND Name GND Frequency 124.3 MHZ
Type TWR Name TWR Frequency 118.6 MHZ
Airport Navaids
Type NDB Name Bedok Frequency 232 KHZ
Type VOR-DME Name Tekong Frequency 116500 KHZ
Airport Weather Information & NOTAM
ADDS - METARS form results

(0050 UTC 20 July 2019)
Data provider http://aviationweather.gov/metar/data/
 
METAR text: WSSS 200030Z 16006KT 110V170 9999 FEW018 BKN300 29/26 Q1010 NOSIG
Conditions at: WSSS (SINGAPORE/CHANGI, SG) observed 0030 UTC 20 July 2019
Temperature: 29.0°C (84°F)
Dewpoint: 26.0°C (79°F) [RH = 84%]
Pressure (altimeter): 29.82 inches Hg (1010.0 mb)
Winds: from the SSE (160 degrees) at 7 MPH (6 knots; 3.1 m/s)
Visibility: 6 or more miles (10+ km)
Ceiling: 30000 feet AGL
Clouds: few clouds at 1800 feet AGL
broken clouds at 30000 feet AGL
Weather: no significant weather observed at this time

METAR text: WSSS 200000Z 15006KT 120V180 9999 FEW018 BKN300 29/25 Q1009 NOSIG
Conditions at: WSSS (SINGAPORE/CHANGI, SG) observed 0000 UTC 20 July 2019
Temperature: 29.0°C (84°F)
Dewpoint: 25.0°C (77°F) [RH = 79%]
Pressure (altimeter): 29.79 inches Hg (1009.0 mb)
Winds: from the SSE (150 degrees) at 7 MPH (6 knots; 3.1 m/s)
Visibility: 6 or more miles (10+ km)
Ceiling: 30000 feet AGL
Clouds: few clouds at 1800 feet AGL
broken clouds at 30000 feet AGL
Weather: no significant weather observed at this time

Forecast for: WSSS (SINGAPORE/CHANGI, SG)
Text: TAF WSSS 192300Z 2000/2106 17010KT 9999 FEW015 SCT020
Forecast period: 0000 UTC 20 July 2019 to 0600 UTC 21 July 2019
Forecast type: FROM: standard forecast or significant change
Winds: from the S (170 degrees) at 12 MPH (10 knots; 5.1 m/s)
Visibility: 6 or more miles 10+ km)
Ceiling: at least 12,000 feet AGL
Clouds: few clouds at 1500 feet AGL
scattered clouds at 2000 feet AGL
Weather: no significant weather forecast for this period